This is the latest recevied weather packets stored in our database for station/object HB9TJM-8. If no packets are shown the sender has not sent any weather packets the latest 10 day(s).
| Time | Temp. | Humidity | Pressure | Rain* | Wind** | Luminosity | Snow |
|---|---|---|---|---|---|---|---|
| 1777356458 | 11.67° C | 56% | 1016.3 hPa | 0 mm | - | 88 W/m² | - |
| 1777356458 | 11.67° C | 56% | 1016.3 hPa | 0 mm | - | 88 W/m² | - |
| 1777356151 | 11.67° C | 55% | 1016.4 hPa | 0 mm | - | 77 W/m² | - |
| 1777356150 | 11.67° C | 55% | 1016.4 hPa | 0 mm | - | 77 W/m² | - |
| 1777355843 | 11.67° C | 55% | 1016.6 hPa | 0 mm | - | 66 W/m² | - |
| 1777355843 | 11.67° C | 55% | 1016.6 hPa | 0 mm | - | 66 W/m² | - |
| 1777354614 | 11.11° C | 57% | 1016.5 hPa | 0 mm | - | 50 W/m² | - |
| 1777354613 | 11.11° C | 57% | 1016.5 hPa | 0 mm | - | 50 W/m² | - |
| 1777354306 | 11.67° C | 56% | 1016.1 hPa | 0 mm | - | 42 W/m² | - |
| 1777354306 | 11.67° C | 56% | 1016.1 hPa | 0 mm | - | 42 W/m² | - |
| 1777353999 | 11.67° C | 54% | 1016 hPa | 0 mm | - | 35 W/m² | - |
| 1777353998 | 11.67° C | 54% | 1016 hPa | 0 mm | - | 35 W/m² | - |
| 1777353691 | 11.67° C | 54% | 1016.5 hPa | 0 mm | - | 34 W/m² | - |
| 1777353691 | 11.67° C | 54% | 1016.5 hPa | 0 mm | - | 34 W/m² | - |
| 1777353383 | 11.67° C | 55% | 1015.9 hPa | 0 mm | - | 29 W/m² | - |
| 1777353383 | 11.67° C | 55% | 1015.9 hPa | 0 mm | - | 29 W/m² | - |
| 1777353075 | 11.11° C | 55% | 1016.4 hPa | 0 mm | - | 24 W/m² | - |
| 1777353075 | 11.11° C | 55% | 1016.4 hPa | 0 mm | - | 24 W/m² | - |
| 1777352768 | 11.11° C | 55% | 1016.3 hPa | 0 mm | - | 19 W/m² | - |
| 1777352461 | 11.11° C | 56% | 1016.3 hPa | 0 mm | - | 15 W/m² | - |
| 1777352461 | 11.11° C | 56% | 1016.3 hPa | 0 mm | - | 15 W/m² | - |
| 1777352154 | 11.67° C | 55% | 1016.1 hPa | 0 mm | - | 13 W/m² | - |
| 1777352153 | 11.67° C | 55% | 1016.1 hPa | 0 mm | - | 13 W/m² | - |
| 1777351846 | 11.11° C | 56% | 1015.9 hPa | 0 mm | - | 13 W/m² | - |
| 1777351846 | 11.11° C | 56% | 1015.9 hPa | 0 mm | - | 13 W/m² | - |
* Rain latest hour (hover to see other rain measurements)
** Current wind speed in m/s (hover to see current wind gust speed)